Weather History for Wolf Point, MT

Change the Weather History Date:

Tuesday, January 1, 2013

  Actual Average Record
Temperature  
Mean Temperature 17 °F -  
Max Temperature 29 °F 24 °F 42 °F (2000)
Min Temperature 4 °F 0 °F -24 °F (2011)
Degree Days  
Heating Degree Days 48    
Cooling Degree Days 0    
Moisture  
Dew Point 10 °F    
Average Humidity 84    
Maximum Humidity 92    
Minimum Humidity 74    
Precipitation  
Precipitation T in 0.01 in 0.02 in (1999)
Month to date precipitation T 0.01  
Year to date precipitation T 0.01  
Sea Level Pressure  
Sea Level Pressure 30.08 in    
Wind  
Wind Speed 8 mph (WSW)    
Max Wind Speed 21 mph    
Max Gust Speed 29 mph    
Visibility 4 miles    
Events Fog , Snow    
T = Trace of Precipitation, MM = Missing Value Source: NWS Daily Summary

Daily Weather History Graph

Daily Weather History Graph

Search for Another Location

Airport:

Trip Planner

Search our weather history database for the weather conditions in past years. The results will help you decide how hot, cold, wet, or windy it might be!

Date:

Astronomy

Jan. 01, 2013 Rise Set
Actual Time 7:52 AM MST 4:19 PM MST
Civil Twilight 7:16 AM MST 4:56 PM MST
Nautical Twilight 6:36 AM MST 5:35 PM MST
Astronomical Twilight 5:59 AM MST 6:13 PM MST
Moon 9:16 PM MST (1/1) 9:45 AM MST (1/1)
Length of Visible Light 9h 39m
Length of Day
8h 27m
Waning Gibbous, 83% of the Moon is Illuminated
Jan 1
Waning Gibbous
Jan 4
Last Quarter
Jan 11
New
Jan 18
First Quarter
Jan 26
Full

Hourly Weather History & Observations

Time (MST) Temp. Windchill Dew Point Humidity Pressure Visibility Wind Dir Wind Speed Gust Speed Precip Events Conditions
12:53 AM 15.8 °F 8.6 °F 12.2 °F 86% 30.07 in 0.2 mi WSW 4.6 mph - N/A Fog Light Freezing Fog
1:53 AM 12.0 °F 4.1 °F 8.1 °F 84% 30.19 in 1.0 mi SSW 4.6 mph - N/A   Mist
2:05 AM 10.4 °F 2.2 °F 8.6 °F 92% 30.08 in 0.5 mi SW 4.6 mph - N/A Fog Light Freezing Fog
2:53 AM 10.0 °F -0.9 °F 7.0 °F 87% 30.20 in 0.8 mi West 6.9 mph - N/A   Mist
2:59 AM 10.4 °F 4.0 °F 6.8 °F 85% 30.08 in 1.2 mi West 3.5 mph - N/A   Overcast
3:16 AM 8.6 °F -1.3 °F 6.8 °F 92% 30.08 in 0.8 mi WSW 5.8 mph - N/A   Overcast
3:53 AM 8.6 °F -1.3 °F 6.8 °F 92% 30.08 in 0.8 mi WSW 5.8 mph - N/A   Mist
4:22 AM 8.6 °F -2.6 °F 6.8 °F 92% 30.07 in 1.0 mi SW 6.9 mph - 0.00 in Snow Light Snow
4:51 AM 8.6 °F -2.6 °F 3.2 °F 79% 30.06 in 1.5 mi WSW 6.9 mph - 0.00 in   Overcast
4:53 AM 6.8 °F -5.9 °F 3.2 °F 85% 30.05 in 1.8 mi West 8.1 mph - N/A   Overcast
5:06 AM 6.8 °F -5.9 °F 3.2 °F 85% 30.06 in 1.0 mi WSW 8.1 mph - N/A   Overcast
5:12 AM 6.8 °F -5.9 °F 3.2 °F 85% 30.06 in 2.0 mi West 8.1 mph - N/A   Overcast
5:39 AM 6.8 °F -3.5 °F 3.2 °F 85% 30.05 in 3.0 mi WSW 5.8 mph - N/A   Overcast
5:53 AM 6.1 °F -4.3 °F 1.9 °F 83% 30.17 in 1.5 mi WSW 5.8 mph - N/A   Overcast
6:09 AM 6.8 °F -4.8 °F 1.4 °F 79% 30.04 in 0.8 mi WSW 6.9 mph - N/A   Overcast
6:53 AM 5.0 °F -4.1 °F 1.4 °F 85% 30.04 in 0.5 mi West 4.6 mph - N/A Fog Light Freezing Fog
7:15 AM 5.0 °F -4.1 °F 1.4 °F 85% 30.03 in 1.2 mi WSW 4.6 mph - N/A   Overcast
7:53 AM 3.9 °F -8.2 °F 1.0 °F 88% 30.15 in 1.8 mi WSW 6.9 mph - 0.00 in   Overcast
8:00 AM 5.0 °F -6.9 °F 1.4 °F 85% 30.02 in 2.5 mi WSW 6.9 mph - N/A   Overcast
8:09 AM 5.0 °F -6.9 °F 1.4 °F 85% 30.02 in 4.0 mi West 6.9 mph - N/A   Overcast
8:20 AM 5.0 °F -6.9 °F 1.4 °F 85% 30.01 in 2.5 mi WSW 6.9 mph - N/A   Overcast
8:27 AM 5.0 °F -5.6 °F 1.4 °F 85% 30.01 in 6.0 mi WSW 5.8 mph - N/A   Overcast
8:53 AM 6.1 °F -5.6 °F 1.9 °F 83% 30.16 in 7.0 mi WSW 6.9 mph - N/A   Overcast
9:53 AM 8.6 °F -4.7 °F 5.0 °F 85% 30.04 in 8.0 mi SW 9.2 mph - N/A   Overcast
10:53 AM 12.9 °F 0.7 °F 9.0 °F 84% 30.14 in 7.0 mi WSW 9.2 mph - 0.00 in   Overcast
11:10 AM 14.0 °F 1.2 °F 8.6 °F 79% 30.02 in 1.8 mi SW 10.4 mph - 0.00 in Snow Light Snow
11:31 AM 14.0 °F 0.5 °F 10.4 °F 86% 30.01 in 1.0 mi WSW 11.5 mph - 0.00 in Snow Light Snow
11:45 AM 15.8 °F 2.7 °F 10.4 °F 79% 30.00 in 0.5 mi WSW 11.5 mph - 0.00 in Fog , Snow Snow
11:53 AM 15.1 °F 2.5 °F 10.9 °F 84% 30.12 in 0.2 mi SW 10.4 mph - 0.00 in Fog , Snow Snow
12:38 PM 15.8 °F -0.2 °F 10.4 °F 79% 29.99 in 1.2 mi WSW 17.3 mph - 0.00 in Snow Light Snow
12:46 PM 15.8 °F 0.9 °F 12.2 °F 86% 29.99 in 2.0 mi WSW 15.0 mph - 0.00 in Snow Light Snow
12:53 PM 16.0 °F 2.9 °F 12.0 °F 84% 30.10 in 2.5 mi WSW 11.5 mph - 0.00 in Snow Light Snow
1:17 PM 17.6 °F 6.4 °F 12.2 °F 79% 29.99 in 1.0 mi WSW 9.2 mph - 0.00 in Snow Light Snow
1:33 PM 19.4 °F 6.6 °F 15.8 °F 86% 29.99 in 1.5 mi West 12.7 mph - 0.00 in Snow Light Snow
1:40 PM 19.4 °F 5.5 °F 15.8 °F 86% 29.99 in 3.0 mi West 15.0 mph - 0.00 in Snow Light Snow
1:53 PM 19.9 °F 6.7 °F 16.0 °F 85% 30.10 in 8.0 mi West 13.8 mph - 0.00 in   Overcast
2:51 PM 24.8 °F 12.9 °F 19.4 °F 80% 30.00 in 10.0 mi West 13.8 mph - N/A   Overcast
2:53 PM 24.1 °F 12.0 °F 19.9 °F 84% 30.12 in 10.0 mi West 13.8 mph - N/A   Overcast
3:53 PM 23.0 °F 11.7 °F 19.0 °F 85% 30.13 in 10.0 mi WSW 11.5 mph - N/A   Scattered Clouds
4:53 PM 19.9 °F 7.9 °F 17.1 °F 89% 30.15 in 10.0 mi WSW 11.5 mph - N/A   Clear
5:53 PM 19.0 °F 8.2 °F 16.0 °F 88% 30.15 in 10.0 mi WSW 9.2 mph - N/A   Scattered Clouds
6:53 PM 21.0 °F 9.3 °F 18.0 °F 88% 30.17 in 10.0 mi WSW 11.5 mph - N/A   Mostly Cloudy
7:53 PM 28.0 °F 16.5 °F 23.0 °F 81% 30.15 in 10.0 mi West 15.0 mph - N/A   Overcast
8:53 PM 28.9 °F 15.8 °F 21.9 °F 75% 30.15 in 10.0 mi WNW 20.7 mph 27.6 mph N/A   Overcast
9:28 PM 28.4 °F 15.8 °F 21.2 °F 74% 30.05 in 10.0 mi WNW 18.4 mph 28.8 mph N/A   Overcast
9:53 PM 28.9 °F 16.5 °F 21.9 °F 75% 30.16 in 10.0 mi WNW 18.4 mph - N/A   Overcast
10:53 PM 28.0 °F 17.5 °F 21.9 °F 78% 30.16 in 10.0 mi WNW 12.7 mph - N/A   Overcast
11:53 PM 28.9 °F 18.2 °F 21.9 °F 75% 30.17 in 10.0 mi WNW 13.8 mph - N/A   Overcast